Regional Weather Roundup
Issued by NWS

Home | Current Version | Previous Version | Text Only | Print | Product List | Glossary Off
Versions: 1 2 3 4 5 6 7 8 9 10 11 12 13 14 15 16 17 18 19 20 21 22 23 24 25 26 27 28 29 30 31 32 33 34 35 36 37 38 39 40 41 42 43 44 45 46 47 48 49 50

000
ASUS43 KBIS 031410
RWRND

NORTH DAKOTA REGIONAL WEATHER ROUNDUP
NATIONAL WEATHER SERVICE BISMARCK ND
900 AM CDT FRI JUL 03 2015

NOTE: "FAIR" INDICATES FEW OR NO CLOUDS BELOW 12,000 FEET WITH NO
SIGNIFICANT WEATHER AND/OR OBSTRUCTIONS TO VISIBILITY.


NDZ001>003-009>011-017-031500-
NORTHWEST NORTH DAKOTA

CITY           SKY/WX    TMP DP  RH WIND       PRES   REMARKS
WILLISTON      SUNNY     66  61  84 N3        30.01F HAZE
MINOT          CLOUDY    66  62  87 CALM      29.99S FOG
MINOT AFB      SUNNY     67  67 100 NW2       29.99R FOG
$$

NDZ018>021-031>035-040>046-031500-
SOUTHWEST NORTH DAKOTA

CITY           SKY/WX    TMP DP  RH WIND       PRES   REMARKS
BISMARCK       CLOUDY    68  63  84 CALM      30.01F HAZE
DICKINSON      SUNNY     69  62  78 S5        30.02F HAZE
GARRISON         N/A     66  62  87 CALM      30.01S
HETTINGER ARPT SUNNY     68  61  78 CALM      30.06S HAZE
$$

NDZ004>008-012>016-024-026-027-054-031500-
NORTHEAST NORTH DAKOTA

CITY           SKY/WX    TMP DP  RH WIND       PRES   REMARKS
GRAND FORKS    FOG       70  66  87 NW5       29.93S VSB 1
GRND FRKS AFB  MOSUNNY   70  65  84 VRB5      29.94S HAZE
DEVILS LAKE    MOSUNNY   66  61  82 NW5       29.97R
$$

NDZ022-023-025-028>030-036>039-047>053-031500-
SOUTHEAST NORTH DAKOTA

CITY           SKY/WX    TMP DP  RH WIND       PRES   REMARKS
FARGO          PTSUNNY   69  64  84 N3        29.94S HAZE
JAMESTOWN      PTSUNNY   68  65  90 N9        29.97R FOG
$$



USA.gov is the U.S. government's official web portal to all federal, state and local government web resources and services.